Andrews AFB, MD

11:39 PM EDT on May 28, 2017 (GMT -0400)
Andrews Air Force Base-Naf

Weather History for KADW - November, 2013

Change the Weather History Date:

Saturday, November 9, 2013

  Actual Average Record
Temperature  
Mean Temperature 40 °F -  
Max Temperature 54 °F 55 °F 69 °F (1999)
Min Temperature 27 °F 36 °F 26 °F (2003)
Degree Days  
Heating Degree Days 24    
Moisture  
Dew Point 27 °F    
Average Humidity 55    
Maximum Humidity 88    
Minimum Humidity 33    
Precipitation  
Precipitation 0.00 in - - ()
Sea Level Pressure  
Sea Level Pressure 30.25 in    
Wind  
Wind Speed 6 mph (SSW)    
Max Wind Speed 16 mph    
Max Gust Speed -    
Visibility 10 miles    
Events      
Averages and records for this station are not official NWS values.
T = Trace of Precipitation, MM = Missing Value Source: NWS Daily Summary

Daily Weather History Graph

Daily Weather History Graph

Search for Another Location

Airport or City:

Trip Planner

Search our weather history database for the weather conditions in past years. The results will help you decide how hot, cold, wet, or windy it might be!

Date:

Astronomy

Nov. 09, 2013 Rise Set
Actual Time 6:43 AM EST 4:58 PM EST
Civil Twilight 6:15 AM EST 5:26 PM EST
Nautical Twilight 5:43 AM EST 5:58 PM EST
Astronomical Twilight 5:12 AM EST 6:29 PM EST
Moon 12:19 PM EST (11/9) 11:25 PM EST (11/9)
Length of Visible Light 11h 11m
Length of Day
10h 15m
Waxing Crescent, 44% of the Moon is Illuminated
Nov 9
Waxing Crescent
Nov 10
First Quarter
Nov 17
Full
Nov 25
Last Quarter
Dec 2
New

Hourly Weather History & Observations

Time (EST) Temp. Windchill Dew Point Humidity Pressure Visibility Wind Dir Wind Speed Gust Speed Precip Events Conditions
12:58 AM 31.6 °F - 25.3 °F 78% 30.35 in 10.0 mi West 2.3 mph - N/A   Clear
1:58 AM 29.5 °F - 23.7 °F 79% 30.35 in 10.0 mi Calm Calm - N/A   Clear
2:58 AM 28.8 °F - 24.1 °F 83% 30.32 in 10.0 mi Calm Calm - N/A   Clear
3:58 AM 28.2 °F - 24.6 °F 86% 30.35 in 10.0 mi SW 1.2 mph - N/A   Clear
4:58 AM 28.2 °F - 25.0 °F 88% 30.36 in 10.0 mi Calm Calm - N/A   Clear
5:58 AM 29.7 °F - 25.5 °F 85% 30.35 in 10.0 mi Calm Calm - N/A   Clear
6:58 AM 27.3 °F - 23.7 °F 86% 30.37 in 10.0 mi SSW 2.3 mph - N/A   Clear
7:58 AM 36.9 °F - 30.2 °F 77% 30.39 in 10.0 mi SSW 2.3 mph - N/A   Clear
8:58 AM 43.9 °F 42.3 °F 29.5 °F 57% 30.38 in 10.0 mi SW 3.5 mph - N/A   Clear
9:58 AM 46.4 °F 44.3 °F 28.2 °F 49% 30.37 in 10.0 mi South 4.6 mph - N/A   Clear
10:58 AM 49.8 °F - 26.6 °F 41% 30.34 in 10.0 mi South 9.2 mph - N/A   Clear
11:58 AM 51.4 °F - 26.6 °F 38% 30.30 in 10.0 mi SW 15.0 mph - N/A   Clear
12:56 PM 53.6 °F - 26.6 °F 35% 30.23 in 10.0 mi SW 12.7 mph - N/A   Clear
12:58 PM 53.4 °F - 26.4 °F 35% 30.26 in 10.0 mi SW 12.7 mph - N/A   Clear
1:58 PM 54.3 °F - 26.2 °F 34% 30.22 in 10.0 mi SW 15.0 mph - N/A   Clear
2:58 PM 54.3 °F - 25.3 °F 33% 30.19 in 10.0 mi SSW 12.7 mph - N/A   Clear
3:58 PM 53.4 °F - 25.9 °F 34% 30.18 in 10.0 mi South 13.8 mph - N/A   Clear
4:58 PM 51.4 °F - 25.7 °F 37% 30.16 in 10.0 mi South 10.4 mph - N/A   Partly Cloudy
5:58 PM 48.6 °F - 26.4 °F 42% 30.17 in 10.0 mi South 10.4 mph - N/A   Partly Cloudy
6:58 PM 47.1 °F - 27.7 °F 47% 30.14 in 10.0 mi South 10.4 mph - N/A   Partly Cloudy
7:58 PM 48.6 °F - 28.2 °F 45% 30.12 in 10.0 mi South 16.1 mph - N/A   Partly Cloudy
8:58 PM 49.3 °F - 27.9 °F 44% 30.11 in 10.0 mi SSW 12.7 mph - N/A   Scattered Clouds
9:58 PM 48.0 °F - 27.9 °F 46% 30.09 in 10.0 mi SSW 12.7 mph - N/A   Clear
10:58 PM 45.9 °F 40.8 °F 28.0 °F 50% 30.08 in 10.0 mi SSW 10.4 mph - N/A   Clear
11:58 PM 45.5 °F 40.3 °F 27.9 °F 50% 30.06 in 10.0 mi SSW 10.4 mph - N/A   Clear